owner,sensor,date,latitude,longitude,air_pressure(mBar),qcFlag 
WAVCIS,ioos:station:WAVCIS:CSI06:1,2011-05-01T00:00:00Z,28.8667,-90.4833,1012.65,11111222 
WAVCIS,ioos:station:WAVCIS:CSI06:1,2011-05-01T01:00:00Z,28.8667,-90.4833,1012.99,11111222 
WAVCIS,ioos:station:WAVCIS:CSI06:1,2011-05-01T02:00:00Z,28.8667,-90.4833,1013.44,11111222 
WAVCIS,ioos:station:WAVCIS:CSI06:1,2011-05-01T03:00:00Z,28.8667,-90.4833,1013.34,11111222 
WAVCIS,ioos:station:WAVCIS:CSI06:1,2011-05-01T04:00:00Z,28.8667,-90.4833,1013.51,11111222 
WAVCIS,ioos:station:WAVCIS:CSI06:1,2011-05-01T05:00:00Z,28.8667,-90.4833,1013.78,11111222 
WAVCIS,ioos:station:WAVCIS:CSI06:1,2011-05-01T06:00:00Z,28.8667,-90.4833,1013.71,11111222 
WAVCIS,ioos:station:WAVCIS:CSI06:1,2011-05-01T07:00:00Z,28.8667,-90.4833,1012.94,11111222 
WAVCIS,ioos:station:WAVCIS:CSI06:1,2011-05-01T08:00:00Z,28.8667,-90.4833,1012.37,11111222 
WAVCIS,ioos:station:WAVCIS:CSI06:1,2011-05-01T09:00:00Z,28.8667,-90.4833,1012.02,11111222 
WAVCIS,ioos:station:WAVCIS:CSI06:1,2011-05-01T10:00:00Z,28.8667,-90.4833,1011.91,11111222 
WAVCIS,ioos:station:WAVCIS:CSI06:1,2011-05-01T11:00:00Z,28.8667,-90.4833,1012.3,11111222 
WAVCIS,ioos:station:WAVCIS:CSI06:1,2011-05-01T12:00:00Z,28.8667,-90.4833,1013.09,11111222 
WAVCIS,ioos:station:WAVCIS:CSI06:1,2011-05-01T13:00:00Z,28.8667,-90.4833,1013.71,11111222 
WAVCIS,ioos:station:WAVCIS:CSI06:1,2011-05-01T14:00:00Z,28.8667,-90.4833,1014.13,11111222 
WAVCIS,ioos:station:WAVCIS:CSI06:1,2011-05-01T15:00:00Z,28.8667,-90.4833,1014.27,11111222 
WAVCIS,ioos:station:WAVCIS:CSI06:1,2011-05-01T16:00:00Z,28.8667,-90.4833,1014.74,11111222 
WAVCIS,ioos:station:WAVCIS:CSI06:1,2011-05-01T17:00:00Z,28.8667,-90.4833,1014.92,11111222 
WAVCIS,ioos:station:WAVCIS:CSI06:1,2011-05-01T18:00:00Z,28.8667,-90.4833,1014.71,11111222 
WAVCIS,ioos:station:WAVCIS:CSI06:1,2011-05-01T19:00:00Z,28.8667,-90.4833,1014.38,11111222 
WAVCIS,ioos:station:WAVCIS:CSI06:1,2011-05-01T20:00:00Z,28.8667,-90.4833,1013.74,11111222 
WAVCIS,ioos:station:WAVCIS:CSI06:1,2011-05-01T21:00:00Z,28.8667,-90.4833,1013.55,11111222 
WAVCIS,ioos:station:WAVCIS:CSI06:1,2011-05-01T22:00:00Z,28.8667,-90.4833,1013.44,11111222 
WAVCIS,ioos:station:WAVCIS:CSI06:1,2011-05-01T23:00:00Z,28.8667,-90.4833,1013.56,11111222 
WAVCIS,ioos:station:WAVCIS:CSI06:1,2011-05-02T00:00:00Z,28.8667,-90.4833,1013.64,11111222 
WAVCIS,ioos:station:WAVCIS:CSI06:1,2011-05-02T01:00:00Z,28.8667,-90.4833,1013.85,11111222 
WAVCIS,ioos:station:WAVCIS:CSI06:1,2011-05-02T02:00:00Z,28.8667,-90.4833,1014.11,11111222 
WAVCIS,ioos:station:WAVCIS:CSI06:1,2011-05-02T03:00:00Z,28.8667,-90.4833,1014.31,11111222 
WAVCIS,ioos:station:WAVCIS:CSI06:1,2011-05-02T04:00:00Z,28.8667,-90.4833,1014.55,11111222 
WAVCIS,ioos:station:WAVCIS:CSI06:1,2011-05-02T05:00:00Z,28.8667,-90.4833,1014.34,11111222 
WAVCIS,ioos:station:WAVCIS:CSI06:1,2011-05-02T06:00:00Z,28.8667,-90.4833,1014.19,11111222 
WAVCIS,ioos:station:WAVCIS:CSI06:1,2011-05-02T07:00:00Z,28.8667,-90.4833,1013.89,11111222 
WAVCIS,ioos:station:WAVCIS:CSI06:1,2011-05-02T08:00:00Z,28.8667,-90.4833,1013.43,11111222 
WAVCIS,ioos:station:WAVCIS:CSI06:1,2011-05-02T09:00:00Z,28.8667,-90.4833,1013.55,11111222 
WAVCIS,ioos:station:WAVCIS:CSI06:1,2011-05-02T10:00:00Z,28.8667,-90.4833,1013.89,11111222 
WAVCIS,ioos:station:WAVCIS:CSI06:1,2011-05-02T11:00:00Z,28.8667,-90.4833,1014.12,11111222 
WAVCIS,ioos:station:WAVCIS:CSI06:1,2011-05-02T12:00:00Z,28.8667,-90.4833,1014.96,11111222 
WAVCIS,ioos:station:WAVCIS:CSI06:1,2011-05-02T13:00:00Z,28.8667,-90.4833,1015.53,11111222 
WAVCIS,ioos:station:WAVCIS:CSI06:1,2011-05-02T14:00:00Z,28.8667,-90.4833,1016.47,11111222 
WAVCIS,ioos:station:WAVCIS:CSI06:1,2011-05-02T15:00:00Z,28.8667,-90.4833,1016.99,11111222 
WAVCIS,ioos:station:WAVCIS:CSI06:1,2011-05-02T16:00:00Z,28.8667,-90.4833,1017.44,11111222 
WAVCIS,ioos:station:WAVCIS:CSI06:1,2011-05-02T17:00:00Z,28.8667,-90.4833,1017.54,11111222 
WAVCIS,ioos:station:WAVCIS:CSI06:1,2011-05-02T18:00:00Z,28.8667,-90.4833,1017.21,11111222 
WAVCIS,ioos:station:WAVCIS:CSI06:1,2011-05-02T19:00:00Z,28.8667,-90.4833,1017.13,11111222 
WAVCIS,ioos:station:WAVCIS:CSI06:1,2011-05-02T20:00:00Z,28.8667,-90.4833,1016.73,11111222 
WAVCIS,ioos:station:WAVCIS:CSI06:1,2011-05-02T21:00:00Z,28.8667,-90.4833,1016.08,11111222 
WAVCIS,ioos:station:WAVCIS:CSI06:1,2011-05-02T22:00:00Z,28.8667,-90.4833,1015.76,11111222 
WAVCIS,ioos:station:WAVCIS:CSI06:1,2011-05-02T23:00:00Z,28.8667,-90.4833,1015.81,11111222 
WAVCIS,ioos:station:WAVCIS:CSI06:1,2011-05-03T00:00:00Z,28.8667,-90.4833,1015.91,11111222 
WAVCIS,ioos:station:WAVCIS:CSI06:1,2011-05-03T01:00:00Z,28.8667,-90.4833,1016.2,11111222 
WAVCIS,ioos:station:WAVCIS:CSI06:1,2011-05-03T02:00:00Z,28.8667,-90.4833,1016.88,11111222 
WAVCIS,ioos:station:WAVCIS:CSI06:1,2011-05-03T03:00:00Z,28.8667,-90.4833,1017.25,11111222 
WAVCIS,ioos:station:WAVCIS:CSI06:1,2011-05-03T04:00:00Z,28.8667,-90.4833,1017.17,11111222 
WAVCIS,ioos:station:WAVCIS:CSI06:1,2011-05-03T05:00:00Z,28.8667,-90.4833,1016.85,11111222 
WAVCIS,ioos:station:WAVCIS:CSI06:1,2011-05-03T06:00:00Z,28.8667,-90.4833,1017.18,11111222 
WAVCIS,ioos:station:WAVCIS:CSI06:1,2011-05-03T07:00:00Z,28.8667,-90.4833,1017.02,11111222 
WAVCIS,ioos:station:WAVCIS:CSI06:1,2011-05-03T08:00:00Z,28.8667,-90.4833,1016.91,11111222 
WAVCIS,ioos:station:WAVCIS:CSI06:1,2011-05-03T09:00:00Z,28.8667,-90.4833,1016.97,11111222 
WAVCIS,ioos:station:WAVCIS:CSI06:1,2011-05-03T10:00:00Z,28.8667,-90.4833,1016.86,11111222 
WAVCIS,ioos:station:WAVCIS:CSI06:1,2011-05-03T11:00:00Z,28.8667,-90.4833,1016.81,11111222 
WAVCIS,ioos:station:WAVCIS:CSI06:1,2011-05-03T12:00:00Z,28.8667,-90.4833,1017.73,11111222 
WAVCIS,ioos:station:WAVCIS:CSI06:1,2011-05-03T13:00:00Z,28.8667,-90.4833,1018.54,11111222 
WAVCIS,ioos:station:WAVCIS:CSI06:1,2011-05-03T14:00:00Z,28.8667,-90.4833,1019.07,11111222 
WAVCIS,ioos:station:WAVCIS:CSI06:1,2011-05-03T15:00:00Z,28.8667,-90.4833,1019.49,11111222 
WAVCIS,ioos:station:WAVCIS:CSI06:1,2011-05-03T16:00:00Z,28.8667,-90.4833,1019.98,11111222 
WAVCIS,ioos:station:WAVCIS:CSI06:1,2011-05-03T17:00:00Z,28.8667,-90.4833,1020.37,11111222 
WAVCIS,ioos:station:WAVCIS:CSI06:1,2011-05-03T18:00:00Z,28.8667,-90.4833,1020.15,11111222 
WAVCIS,ioos:station:WAVCIS:CSI06:1,2011-05-03T19:00:00Z,28.8667,-90.4833,1020.2,11111222 
WAVCIS,ioos:station:WAVCIS:CSI06:1,2011-05-03T20:00:00Z,28.8667,-90.4833,1020.04,11111222 
WAVCIS,ioos:station:WAVCIS:CSI06:1,2011-05-03T21:00:00Z,28.8667,-90.4833,1019.92,11111222 
WAVCIS,ioos:station:WAVCIS:CSI06:1,2011-05-03T22:00:00Z,28.8667,-90.4833,1020.19,11111222 
WAVCIS,ioos:station:WAVCIS:CSI06:1,2011-05-03T23:00:00Z,28.8667,-90.4833,1020.89,11111222 
WAVCIS,ioos:station:WAVCIS:CSI06:1,2011-05-04T00:00:00Z,28.8667,-90.4833,1021.21,11111222 
WAVCIS,ioos:station:WAVCIS:CSI06:1,2011-05-04T01:00:00Z,28.8667,-90.4833,1021.74,11111222 
WAVCIS,ioos:station:WAVCIS:CSI06:1,2011-05-04T02:00:00Z,28.8667,-90.4833,1022.36,11111222 
WAVCIS,ioos:station:WAVCIS:CSI06:1,2011-05-04T03:00:00Z,28.8667,-90.4833,1022.97,11111222 
WAVCIS,ioos:station:WAVCIS:CSI06:1,2011-05-04T04:00:00Z,28.8667,-90.4833,1023.11,11111222 
WAVCIS,ioos:station:WAVCIS:CSI06:1,2011-05-04T05:00:00Z,28.8667,-90.4833,1023.58,11111222 
WAVCIS,ioos:station:WAVCIS:CSI06:1,2011-05-04T06:00:00Z,28.8667,-90.4833,1023.56,11111222 
WAVCIS,ioos:station:WAVCIS:CSI06:1,2011-05-04T07:00:00Z,28.8667,-90.4833,1023.38,11111222 
WAVCIS,ioos:station:WAVCIS:CSI06:1,2011-05-04T08:00:00Z,28.8667,-90.4833,1023.45,11111222 
WAVCIS,ioos:station:WAVCIS:CSI06:1,2011-05-04T09:00:00Z,28.8667,-90.4833,1023.67,11111222 
WAVCIS,ioos:station:WAVCIS:CSI06:1,2011-05-04T10:00:00Z,28.8667,-90.4833,1023.75,11111222 
WAVCIS,ioos:station:WAVCIS:CSI06:1,2011-05-04T11:00:00Z,28.8667,-90.4833,1024.21,11111222 
WAVCIS,ioos:station:WAVCIS:CSI06:1,2011-05-04T12:00:00Z,28.8667,-90.4833,1024.87,11111222 
WAVCIS,ioos:station:WAVCIS:CSI06:1,2011-05-04T13:00:00Z,28.8667,-90.4833,1025.35,11111222 
WAVCIS,ioos:station:WAVCIS:CSI06:1,2011-05-04T14:00:00Z,28.8667,-90.4833,1025.8,11111222 
WAVCIS,ioos:station:WAVCIS:CSI06:1,2011-05-04T15:00:00Z,28.8667,-90.4833,1026.03,11111222 
WAVCIS,ioos:station:WAVCIS:CSI06:1,2011-05-04T16:00:00Z,28.8667,-90.4833,1025.94,11111222 
WAVCIS,ioos:station:WAVCIS:CSI06:1,2011-05-04T17:00:00Z,28.8667,-90.4833,1025.75,11111222 
WAVCIS,ioos:station:WAVCIS:CSI06:1,2011-05-04T18:00:00Z,28.8667,-90.4833,1025.36,11111222 
WAVCIS,ioos:station:WAVCIS:CSI06:1,2011-05-04T19:00:00Z,28.8667,-90.4833,1024.85,11111222 
WAVCIS,ioos:station:WAVCIS:CSI06:1,2011-05-04T20:00:00Z,28.8667,-90.4833,1024.07,11111222 
WAVCIS,ioos:station:WAVCIS:CSI06:1,2011-05-04T21:00:00Z,28.8667,-90.4833,1023.62,11111222 
WAVCIS,ioos:station:WAVCIS:CSI06:1,2011-05-04T22:00:00Z,28.8667,-90.4833,1023.55,11111222 
WAVCIS,ioos:station:WAVCIS:CSI06:1,2011-05-04T23:00:00Z,28.8667,-90.4833,1023.23,11111222 
WAVCIS,ioos:station:WAVCIS:CSI06:1,2011-05-05T00:00:00Z,28.8667,-90.4833,1023.12,11111222 
WAVCIS,ioos:station:WAVCIS:CSI06:1,2011-05-05T01:00:00Z,28.8667,-90.4833,1023.34,11111222 
WAVCIS,ioos:station:WAVCIS:CSI06:1,2011-05-05T02:00:00Z,28.8667,-90.4833,1023.46,11111222 
WAVCIS,ioos:station:WAVCIS:CSI06:1,2011-05-05T03:00:00Z,28.8667,-90.4833,1023.72,11111222 
WAVCIS,ioos:station:WAVCIS:CSI06:1,2011-05-05T04:00:00Z,28.8667,-90.4833,1023.84,11111222 
WAVCIS,ioos:station:WAVCIS:CSI06:1,2011-05-05T05:00:00Z,28.8667,-90.4833,1023.47,11111222 
WAVCIS,ioos:station:WAVCIS:CSI06:1,2011-05-05T06:00:00Z,28.8667,-90.4833,1022.9,11111222 
WAVCIS,ioos:station:WAVCIS:CSI06:1,2011-05-05T07:00:00Z,28.8667,-90.4833,1022.44,11111222 
WAVCIS,ioos:station:WAVCIS:CSI06:1,2011-05-05T08:00:00Z,28.8667,-90.4833,1021.98,11111222 
WAVCIS,ioos:station:WAVCIS:CSI06:1,2011-05-05T09:00:00Z,28.8667,-90.4833,1021.49,11111222 
WAVCIS,ioos:station:WAVCIS:CSI06:1,2011-05-05T10:00:00Z,28.8667,-90.4833,1021.41,11111222 
WAVCIS,ioos:station:WAVCIS:CSI06:1,2011-05-05T11:00:00Z,28.8667,-90.4833,1021.63,11111222 
WAVCIS,ioos:station:WAVCIS:CSI06:1,2011-05-05T12:00:00Z,28.8667,-90.4833,1021.88,11111222 
WAVCIS,ioos:station:WAVCIS:CSI06:1,2011-05-05T13:00:00Z,28.8667,-90.4833,1022.26,11111222 
WAVCIS,ioos:station:WAVCIS:CSI06:1,2011-05-05T14:00:00Z,28.8667,-90.4833,1022.28,11111222 
WAVCIS,ioos:station:WAVCIS:CSI06:1,2011-05-05T15:00:00Z,28.8667,-90.4833,1022.36,11111222 
WAVCIS,ioos:station:WAVCIS:CSI06:1,2011-05-05T16:00:00Z,28.8667,-90.4833,1022.15,11111222 
WAVCIS,ioos:station:WAVCIS:CSI06:1,2011-05-05T17:00:00Z,28.8667,-90.4833,1022.16,11111222 
WAVCIS,ioos:station:WAVCIS:CSI06:1,2011-05-05T18:00:00Z,28.8667,-90.4833,1021.67,11111222 
WAVCIS,ioos:station:WAVCIS:CSI06:1,2011-05-05T19:00:00Z,28.8667,-90.4833,1020.85,11111222 
WAVCIS,ioos:station:WAVCIS:CSI06:1,2011-05-05T20:00:00Z,28.8667,-90.4833,1020.29,11111222 
WAVCIS,ioos:station:WAVCIS:CSI06:1,2011-05-05T21:00:00Z,28.8667,-90.4833,1019.68,11111222 
WAVCIS,ioos:station:WAVCIS:CSI06:1,2011-05-05T22:00:00Z,28.8667,-90.4833,1018.98,11111222 
WAVCIS,ioos:station:WAVCIS:CSI06:1,2011-05-05T23:00:00Z,28.8667,-90.4833,1018.59,11111222 
WAVCIS,ioos:station:WAVCIS:CSI06:1,2011-05-06T00:00:00Z,28.8667,-90.4833,1018.21,11111222 
WAVCIS,ioos:station:WAVCIS:CSI06:1,2011-05-06T01:00:00Z,28.8667,-90.4833,1018.24,11111222 
WAVCIS,ioos:station:WAVCIS:CSI06:1,2011-05-06T02:00:00Z,28.8667,-90.4833,1018.93,11111222 
WAVCIS,ioos:station:WAVCIS:CSI06:1,2011-05-06T03:00:00Z,28.8667,-90.4833,1018.93,11111222 
WAVCIS,ioos:station:WAVCIS:CSI06:1,2011-05-06T04:00:00Z,28.8667,-90.4833,1018.91,11111222 
WAVCIS,ioos:station:WAVCIS:CSI06:1,2011-05-06T05:00:00Z,28.8667,-90.4833,1018.79,11111222 
WAVCIS,ioos:station:WAVCIS:CSI06:1,2011-05-06T06:00:00Z,28.8667,-90.4833,1018.47,11111222 
WAVCIS,ioos:station:WAVCIS:CSI06:1,2011-05-06T07:00:00Z,28.8667,-90.4833,1018.06,11111222 
WAVCIS,ioos:station:WAVCIS:CSI06:1,2011-05-06T08:00:00Z,28.8667,-90.4833,1017.83,11111222 
WAVCIS,ioos:station:WAVCIS:CSI06:1,2011-05-06T09:00:00Z,28.8667,-90.4833,1017.71,11111222 
WAVCIS,ioos:station:WAVCIS:CSI06:1,2011-05-06T10:00:00Z,28.8667,-90.4833,1017.81,11111222 
WAVCIS,ioos:station:WAVCIS:CSI06:1,2011-05-06T11:00:00Z,28.8667,-90.4833,1017.65,11111222 
WAVCIS,ioos:station:WAVCIS:CSI06:1,2011-05-06T12:00:00Z,28.8667,-90.4833,1018.3,11111222 
WAVCIS,ioos:station:WAVCIS:CSI06:1,2011-05-06T13:00:00Z,28.8667,-90.4833,1018.74,11111222 
WAVCIS,ioos:station:WAVCIS:CSI06:1,2011-05-06T14:00:00Z,28.8667,-90.4833,1018.77,11111222 
WAVCIS,ioos:station:WAVCIS:CSI06:1,2011-05-06T15:00:00Z,28.8667,-90.4833,1019.04,11111222 
WAVCIS,ioos:station:WAVCIS:CSI06:1,2011-05-06T16:00:00Z,28.8667,-90.4833,1019.22,11111222 
WAVCIS,ioos:station:WAVCIS:CSI06:1,2011-05-06T17:00:00Z,28.8667,-90.4833,1018.87,11111222 
WAVCIS,ioos:station:WAVCIS:CSI06:1,2011-05-06T18:00:00Z,28.8667,-90.4833,1018.52,11111222 
WAVCIS,ioos:station:WAVCIS:CSI06:1,2011-05-06T19:00:00Z,28.8667,-90.4833,1017.86,11111222 
WAVCIS,ioos:station:WAVCIS:CSI06:1,2011-05-06T20:00:00Z,28.8667,-90.4833,1017.14,11111222 
WAVCIS,ioos:station:WAVCIS:CSI06:1,2011-05-06T21:00:00Z,28.8667,-90.4833,1016.26,11111222 
WAVCIS,ioos:station:WAVCIS:CSI06:1,2011-05-06T22:00:00Z,28.8667,-90.4833,1015.88,11111222 
WAVCIS,ioos:station:WAVCIS:CSI06:1,2011-05-06T23:00:00Z,28.8667,-90.4833,1015.68,11111222 
WAVCIS,ioos:station:WAVCIS:CSI06:1,2011-05-07T00:00:00Z,28.8667,-90.4833,1015.48,11111222 
WAVCIS,ioos:station:WAVCIS:CSI06:1,2011-05-07T01:00:00Z,28.8667,-90.4833,1015.73,11111222 
WAVCIS,ioos:station:WAVCIS:CSI06:1,2011-05-07T02:00:00Z,28.8667,-90.4833,1015.94,11111222 
WAVCIS,ioos:station:WAVCIS:CSI06:1,2011-05-07T03:00:00Z,28.8667,-90.4833,1016.13,11111222 
WAVCIS,ioos:station:WAVCIS:CSI06:1,2011-05-07T04:00:00Z,28.8667,-90.4833,1016.36,11111222 
WAVCIS,ioos:station:WAVCIS:CSI06:1,2011-05-07T05:00:00Z,28.8667,-90.4833,1015.81,11111222 
WAVCIS,ioos:station:WAVCIS:CSI06:1,2011-05-07T06:00:00Z,28.8667,-90.4833,1015.68,11111222 
WAVCIS,ioos:station:WAVCIS:CSI06:1,2011-05-07T07:00:00Z,28.8667,-90.4833,1015.43,11111222 
WAVCIS,ioos:station:WAVCIS:CSI06:1,2011-05-07T08:00:00Z,28.8667,-90.4833,1014.78,11111222 
WAVCIS,ioos:station:WAVCIS:CSI06:1,2011-05-07T09:00:00Z,28.8667,-90.4833,1014.63,11111222 
WAVCIS,ioos:station:WAVCIS:CSI06:1,2011-05-07T10:00:00Z,28.8667,-90.4833,1014.36,11111222 
WAVCIS,ioos:station:WAVCIS:CSI06:1,2011-05-07T11:00:00Z,28.8667,-90.4833,1014.82,11111222 
WAVCIS,ioos:station:WAVCIS:CSI06:1,2011-05-07T12:00:00Z,28.8667,-90.4833,1015.38,11111222 
WAVCIS,ioos:station:WAVCIS:CSI06:1,2011-05-07T13:00:00Z,28.8667,-90.4833,1015.76,11111222 
WAVCIS,ioos:station:WAVCIS:CSI06:1,2011-05-07T14:00:00Z,28.8667,-90.4833,1016.05,11111222 
WAVCIS,ioos:station:WAVCIS:CSI06:1,2011-05-07T15:00:00Z,28.8667,-90.4833,1016.26,11111222 
WAVCIS,ioos:station:WAVCIS:CSI06:1,2011-05-07T16:00:00Z,28.8667,-90.4833,1016.36,11111222 
WAVCIS,ioos:station:WAVCIS:CSI06:1,2011-05-07T17:00:00Z,28.8667,-90.4833,1016.26,11111222 
WAVCIS,ioos:station:WAVCIS:CSI06:1,2011-05-07T18:00:00Z,28.8667,-90.4833,1015.92,11111222 
WAVCIS,ioos:station:WAVCIS:CSI06:1,2011-05-07T19:00:00Z,28.8667,-90.4833,1015.24,11111222 
WAVCIS,ioos:station:WAVCIS:CSI06:1,2011-05-07T20:00:00Z,28.8667,-90.4833,1014.83,11111222 
WAVCIS,ioos:station:WAVCIS:CSI06:1,2011-05-07T21:00:00Z,28.8667,-90.4833,1014.42,11111222 
WAVCIS,ioos:station:WAVCIS:CSI06:1,2011-05-07T22:00:00Z,28.8667,-90.4833,1014.17,11111222 
WAVCIS,ioos:station:WAVCIS:CSI06:1,2011-05-07T23:00:00Z,28.8667,-90.4833,1013.98,11111222 
WAVCIS,ioos:station:WAVCIS:CSI06:1,2011-05-08T00:00:00Z,28.8667,-90.4833,1013.7,11111222 
WAVCIS,ioos:station:WAVCIS:CSI06:1,2011-05-08T01:00:00Z,28.8667,-90.4833,1014.19,11111222 
WAVCIS,ioos:station:WAVCIS:CSI06:1,2011-05-08T02:00:00Z,28.8667,-90.4833,1014.62,11111222 
WAVCIS,ioos:station:WAVCIS:CSI06:1,2011-05-08T03:00:00Z,28.8667,-90.4833,1014.51,11111222 
WAVCIS,ioos:station:WAVCIS:CSI06:1,2011-05-08T04:00:00Z,28.8667,-90.4833,1014.22,11111222 
WAVCIS,ioos:station:WAVCIS:CSI06:1,2011-05-08T05:00:00Z,28.8667,-90.4833,1014.09,11111222 
WAVCIS,ioos:station:WAVCIS:CSI06:1,2011-05-08T06:00:00Z,28.8667,-90.4833,1013.95,11111222 
WAVCIS,ioos:station:WAVCIS:CSI06:1,2011-05-08T07:00:00Z,28.8667,-90.4833,1013.59,11111222 
WAVCIS,ioos:station:WAVCIS:CSI06:1,2011-05-08T08:00:00Z,28.8667,-90.4833,1013.4,11111222 
WAVCIS,ioos:station:WAVCIS:CSI06:1,2011-05-08T09:00:00Z,28.8667,-90.4833,1013.48,11111222 
WAVCIS,ioos:station:WAVCIS:CSI06:1,2011-05-08T10:00:00Z,28.8667,-90.4833,1013.39,11111222 
WAVCIS,ioos:station:WAVCIS:CSI06:1,2011-05-08T11:00:00Z,28.8667,-90.4833,1013.7,11111222 
WAVCIS,ioos:station:WAVCIS:CSI06:1,2011-05-08T12:00:00Z,28.8667,-90.4833,1014.12,11111222 
WAVCIS,ioos:station:WAVCIS:CSI06:1,2011-05-08T13:00:00Z,28.8667,-90.4833,1014.74,11111222 
WAVCIS,ioos:station:WAVCIS:CSI06:1,2011-05-08T14:00:00Z,28.8667,-90.4833,1014.91,11111222 
WAVCIS,ioos:station:WAVCIS:CSI06:1,2011-05-08T15:00:00Z,28.8667,-90.4833,1015.26,11111222 
WAVCIS,ioos:station:WAVCIS:CSI06:1,2011-05-08T16:00:00Z,28.8667,-90.4833,1015.19,11111222 
WAVCIS,ioos:station:WAVCIS:CSI06:1,2011-05-08T17:00:00Z,28.8667,-90.4833,1015.02,11111222 
WAVCIS,ioos:station:WAVCIS:CSI06:1,2011-05-08T18:00:00Z,28.8667,-90.4833,1014.76,11111222 
WAVCIS,ioos:station:WAVCIS:CSI06:1,2011-05-08T19:00:00Z,28.8667,-90.4833,1014.39,11111222 
WAVCIS,ioos:station:WAVCIS:CSI06:1,2011-05-08T20:00:00Z,28.8667,-90.4833,1014.13,11111222 
WAVCIS,ioos:station:WAVCIS:CSI06:1,2011-05-08T21:00:00Z,28.8667,-90.4833,1013.64,11111222 
WAVCIS,ioos:station:WAVCIS:CSI06:1,2011-05-08T22:00:00Z,28.8667,-90.4833,1013.28,11111222 
WAVCIS,ioos:station:WAVCIS:CSI06:1,2011-05-08T23:00:00Z,28.8667,-90.4833,1013.04,11111222 
WAVCIS,ioos:station:WAVCIS:CSI06:1,2011-05-09T00:00:00Z,28.8667,-90.4833,1012.82,11111222 
WAVCIS,ioos:station:WAVCIS:CSI06:1,2011-05-09T01:00:00Z,28.8667,-90.4833,1012.88,11111222 
WAVCIS,ioos:station:WAVCIS:CSI06:1,2011-05-09T02:00:00Z,28.8667,-90.4833,1013.18,11111222 
WAVCIS,ioos:station:WAVCIS:CSI06:1,2011-05-09T03:00:00Z,28.8667,-90.4833,1013.21,11111222 
WAVCIS,ioos:station:WAVCIS:CSI06:1,2011-05-09T04:00:00Z,28.8667,-90.4833,1013.16,11111222 
WAVCIS,ioos:station:WAVCIS:CSI06:1,2011-05-09T05:00:00Z,28.8667,-90.4833,1013.02,11111222 
WAVCIS,ioos:station:WAVCIS:CSI06:1,2011-05-09T06:00:00Z,28.8667,-90.4833,1012.91,11111222 
WAVCIS,ioos:station:WAVCIS:CSI06:1,2011-05-09T07:00:00Z,28.8667,-90.4833,1012.75,11111222 
WAVCIS,ioos:station:WAVCIS:CSI06:1,2011-05-09T08:00:00Z,28.8667,-90.4833,1012.41,11111222 
WAVCIS,ioos:station:WAVCIS:CSI06:1,2011-05-09T09:00:00Z,28.8667,-90.4833,1012.74,11111222 
WAVCIS,ioos:station:WAVCIS:CSI06:1,2011-05-09T10:00:00Z,28.8667,-90.4833,1012.7,11111222 
WAVCIS,ioos:station:WAVCIS:CSI06:1,2011-05-09T11:00:00Z,28.8667,-90.4833,1013.14,11111222 
WAVCIS,ioos:station:WAVCIS:CSI06:1,2011-05-09T12:00:00Z,28.8667,-90.4833,1013.91,11111222 
WAVCIS,ioos:station:WAVCIS:CSI06:1,2011-05-09T13:00:00Z,28.8667,-90.4833,1014.46,11111222 
WAVCIS,ioos:station:WAVCIS:CSI06:1,2011-05-09T14:00:00Z,28.8667,-90.4833,1014.71,11111222 
WAVCIS,ioos:station:WAVCIS:CSI06:1,2011-05-09T15:00:00Z,28.8667,-90.4833,1014.64,11111222 
WAVCIS,ioos:station:WAVCIS:CSI06:1,2011-05-09T16:00:00Z,28.8667,-90.4833,1014.5,11111222 
WAVCIS,ioos:station:WAVCIS:CSI06:1,2011-05-09T18:00:00Z,28.8667,-90.4833,1013.88,11111222 
WAVCIS,ioos:station:WAVCIS:CSI06:1,2011-05-09T19:00:00Z,28.8667,-90.4833,1013.79,11111222 
WAVCIS,ioos:station:WAVCIS:CSI06:1,2011-05-09T20:00:00Z,28.8667,-90.4833,1013.2,11111222 
WAVCIS,ioos:station:WAVCIS:CSI06:1,2011-05-09T21:00:00Z,28.8667,-90.4833,1012.71,11111222 
WAVCIS,ioos:station:WAVCIS:CSI06:1,2011-05-09T22:00:00Z,28.8667,-90.4833,1012.24,11111222 
WAVCIS,ioos:station:WAVCIS:CSI06:1,2011-05-09T23:00:00Z,28.8667,-90.4833,1011.69,11111222 
WAVCIS,ioos:station:WAVCIS:CSI06:1,2011-05-10T00:00:00Z,28.8667,-90.4833,1011.36,11111222 
WAVCIS,ioos:station:WAVCIS:CSI06:1,2011-05-10T01:00:00Z,28.8667,-90.4833,1011.63,11111222 
WAVCIS,ioos:station:WAVCIS:CSI06:1,2011-05-10T02:00:00Z,28.8667,-90.4833,1012.1,11111222 
WAVCIS,ioos:station:WAVCIS:CSI06:1,2011-05-10T03:00:00Z,28.8667,-90.4833,1012.55,11111222 
WAVCIS,ioos:station:WAVCIS:CSI06:1,2011-05-10T04:00:00Z,28.8667,-90.4833,1012.54,11111222 
WAVCIS,ioos:station:WAVCIS:CSI06:1,2011-05-10T05:00:00Z,28.8667,-90.4833,1012.35,11111222 
WAVCIS,ioos:station:WAVCIS:CSI06:1,2011-05-10T06:00:00Z,28.8667,-90.4833,1012.27,11111222 
WAVCIS,ioos:station:WAVCIS:CSI06:1,2011-05-10T07:00:00Z,28.8667,-90.4833,1011.75,11111222 
WAVCIS,ioos:station:WAVCIS:CSI06:1,2011-05-10T08:00:00Z,28.8667,-90.4833,1011.57,11111222 
WAVCIS,ioos:station:WAVCIS:CSI06:1,2011-05-10T09:00:00Z,28.8667,-90.4833,1011.63,11111222 
WAVCIS,ioos:station:WAVCIS:CSI06:1,2011-05-10T10:00:00Z,28.8667,-90.4833,1011.75,11111222 
WAVCIS,ioos:station:WAVCIS:CSI06:1,2011-05-10T11:00:00Z,28.8667,-90.4833,1011.87,11111222 
WAVCIS,ioos:station:WAVCIS:CSI06:1,2011-05-10T12:00:00Z,28.8667,-90.4833,1012.52,11111222 
WAVCIS,ioos:station:WAVCIS:CSI06:1,2011-05-10T13:00:00Z,28.8667,-90.4833,1012.75,11111222 
WAVCIS,ioos:station:WAVCIS:CSI06:1,2011-05-10T14:00:00Z,28.8667,-90.4833,1013.66,11111222 
WAVCIS,ioos:station:WAVCIS:CSI06:1,2011-05-10T15:00:00Z,28.8667,-90.4833,1014.1,11111222 
WAVCIS,ioos:station:WAVCIS:CSI06:1,2011-05-10T16:00:00Z,28.8667,-90.4833,1014.31,11111222 
WAVCIS,ioos:station:WAVCIS:CSI06:1,2011-05-10T17:00:00Z,28.8667,-90.4833,1014.45,11111222 
WAVCIS,ioos:station:WAVCIS:CSI06:1,2011-05-10T18:00:00Z,28.8667,-90.4833,1014.16,11111222 
WAVCIS,ioos:station:WAVCIS:CSI06:1,2011-05-10T19:00:00Z,28.8667,-90.4833,1013.68,11111222 
WAVCIS,ioos:station:WAVCIS:CSI06:1,2011-05-10T20:00:00Z,28.8667,-90.4833,1013.34,11111222 
WAVCIS,ioos:station:WAVCIS:CSI06:1,2011-05-10T21:00:00Z,28.8667,-90.4833,1012.84,11111222 
WAVCIS,ioos:station:WAVCIS:CSI06:1,2011-05-10T22:00:00Z,28.8667,-90.4833,1012.55,11111222 
WAVCIS,ioos:station:WAVCIS:CSI06:1,2011-05-10T23:00:00Z,28.8667,-90.4833,1012.13,11111222 
WAVCIS,ioos:station:WAVCIS:CSI06:1,2011-05-11T00:00:00Z,28.8667,-90.4833,1011.66,11111222 
WAVCIS,ioos:station:WAVCIS:CSI06:1,2011-05-11T01:00:00Z,28.8667,-90.4833,1012.12,11111222 
WAVCIS,ioos:station:WAVCIS:CSI06:1,2011-05-11T02:00:00Z,28.8667,-90.4833,1012.38,11111222 
WAVCIS,ioos:station:WAVCIS:CSI06:1,2011-05-11T03:00:00Z,28.8667,-90.4833,1012.63,11111222 
WAVCIS,ioos:station:WAVCIS:CSI06:1,2011-05-11T04:00:00Z,28.8667,-90.4833,1012.85,11111222 
WAVCIS,ioos:station:WAVCIS:CSI06:1,2011-05-11T05:00:00Z,28.8667,-90.4833,1012.39,11111222 
WAVCIS,ioos:station:WAVCIS:CSI06:1,2011-05-11T06:00:00Z,28.8667,-90.4833,1012.08,11111222 
WAVCIS,ioos:station:WAVCIS:CSI06:1,2011-05-11T07:00:00Z,28.8667,-90.4833,1011.82,11111222 
WAVCIS,ioos:station:WAVCIS:CSI06:1,2011-05-11T08:00:00Z,28.8667,-90.4833,1011.93,11111222 
WAVCIS,ioos:station:WAVCIS:CSI06:1,2011-05-11T09:00:00Z,28.8667,-90.4833,1012.51,11111222 
WAVCIS,ioos:station:WAVCIS:CSI06:1,2011-05-11T10:00:00Z,28.8667,-90.4833,1012.14,11111222 
WAVCIS,ioos:station:WAVCIS:CSI06:1,2011-05-11T11:00:00Z,28.8667,-90.4833,1012.57,11111222 
WAVCIS,ioos:station:WAVCIS:CSI06:1,2011-05-11T12:00:00Z,28.8667,-90.4833,1012.94,11111222 
WAVCIS,ioos:station:WAVCIS:CSI06:1,2011-05-11T13:00:00Z,28.8667,-90.4833,1013.31,11111222 
WAVCIS,ioos:station:WAVCIS:CSI06:1,2011-05-11T14:00:00Z,28.8667,-90.4833,1013.91,11111222 
WAVCIS,ioos:station:WAVCIS:CSI06:1,2011-05-11T15:00:00Z,28.8667,-90.4833,1014.16,11111222 
WAVCIS,ioos:station:WAVCIS:CSI06:1,2011-05-11T16:00:00Z,28.8667,-90.4833,1014.52,11111222 
WAVCIS,ioos:station:WAVCIS:CSI06:1,2011-05-11T17:00:00Z,28.8667,-90.4833,1014.9,11111222 
WAVCIS,ioos:station:WAVCIS:CSI06:1,2011-05-11T18:00:00Z,28.8667,-90.4833,1014.72,11111222 
WAVCIS,ioos:station:WAVCIS:CSI06:1,2011-05-11T19:00:00Z,28.8667,-90.4833,1014.56,11111222 
WAVCIS,ioos:station:WAVCIS:CSI06:1,2011-05-11T20:00:00Z,28.8667,-90.4833,1013.82,11111222 
WAVCIS,ioos:station:WAVCIS:CSI06:1,2011-05-11T21:00:00Z,28.8667,-90.4833,1013.57,11111222 
WAVCIS,ioos:station:WAVCIS:CSI06:1,2011-05-11T22:00:00Z,28.8667,-90.4833,1013.26,11111222 
WAVCIS,ioos:station:WAVCIS:CSI06:1,2011-05-11T23:00:00Z,28.8667,-90.4833,1012.54,11111222 